Regional Weather Roundup
Issued by NWS

Home | Current Version | Previous Version | Graphics & Text | Print | Product List | Glossary On
Versions: 1 2 3 4 5 6 7 8 9 10 11 12 13 14 15 16 17 18 19 20 21 22 23 24 25 26 27 28 29 30 31 32 33 34 35 36 37 38 39 40 41 42 43 44 45 46 47 48 49 50
518
ASUS43 KLSX 290510
RWRMO

WEATHER SUMMARY FOR MISSOURI
NATIONAL WEATHER SERVICE SPRINGFIELD MO
1200 AM CDT SAT APR 29 2017

NOTE: "FAIR" INDICATES FEW OR NO CLOUDS BELOW 12,000 FEET WITH NO
       SIGNIFICANT WEATHER AND/OR OBSTRUCTIONS TO VISIBILITY.
       CURRENT SKY AND/OR WEATHER CONDITIONS ARE NOT AVAILABLE FOR
       CHILLICOTHE AND FARMINGTON.

MOZ001>031-035>038-043-044-053-054-290600-
...NORTHERN AND WESTERN MISSOURI...

CITY           SKY/WX    TMP DP  RH WIND       PRES   REMARKS
KANSAS CTY INT CLOUDY    44  43  96 N14       29.92F VSB 1
KANSAS C DTWN  CLOUDY    47  44  90 N13       29.91F
LEE`S SUMMIT   CLOUDY    46  46 100 N15       29.90F FOG
ST JOSEPH      CLOUDY    44  44 100 N12       29.98F
CHILLICOTHE      N/A     45  44  97 N8        29.95F
KIRKSVILLE     CLOUDY    44  31  60 N15       29.93F

$$
MOZ066>068-077>081-088>096-101>105-290600-
...SOUTHWEST MISSOURI...

CITY           SKY/WX    TMP DP  RH WIND       PRES   REMARKS
SPRINGFIELD    CLOUDY    62  61  96 N7        29.79R
JOPLIN         CLOUDY    63  60  90 E14G21    29.78S
BRANSON        LGT RAIN  63  63 100 N8        29.78S

$$
MOZ032>034-039>042-045>050-055>058-069>072-290600-
...CENTRAL MISSOURI...

CITY           SKY/WX    TMP DP  RH WIND       PRES   REMARKS
COLUMBIA       CLOUDY    58  58 100 NE10      29.83F FOG
JEFFERSON CITY CLOUDY    61  57  87 N10       29.81F
ROLLA          CLOUDY    58  58 100 E7        29.81S FOG
SEDALIA        FOG       56  56 100 N17       29.85F VSB 3/4
WHITEMAN AFB   CLOUDY    50  50 100 N17       29.86S
OSAGE BEACH    CLOUDY    59  59 100 NE7       29.82S

$$
MOZ051-052-059>065-290600-
...EAST CENTRAL MISSOURI...

CITY           SKY/WX    TMP DP  RH WIND       PRES   REMARKS
ST LOUIS INTL  CLOUDY    59  57  93 N3        29.87R FOG
SPIRIT OF STL  CLOUDY    59  58  96 N8        29.84R FOG
ST CHARLES     CLOUDY    58  58 100 N5        29.87R

$$
MOZ072>076-082>087-097>100-106>115-290600-
...SOUTH CENTRAL AND SOUTHEAST MISSOURI...

CITY           SKY/WX    TMP DP  RH WIND       PRES   REMARKS
CAPE GIRARDEAU CLOUDY    68  66  93 NW6       29.80R THUNDER
FARMINGTON     LGT RAIN  61  60  97 NE7       29.82F VSB 1
POPLAR BLUFF   CLOUDY    66  66 100 NE5       29.76F
WEST PLAINS    CLOUDY    64  63  96 NE5       29.78F FOG

$$




USA.gov is the U.S. government's official web portal to all federal, state and local government web resources and services.